Location: ČR
(50.0000°N, 15.0000°E)
Time: 08:58:48
(UTC+00:00)

deb Explorer IX - All Passes

Search period start: 21 October 2021 00:00
Search period end: 31 October 2021 00:00
Orbit: 546 x 1088 km, 38.8° (Epoch: 20 October)

Date Brightness Start Highest point End Pass type
(mag) Time Alt. Az. Time Alt. Az. Time Alt. Az.
21 Oct - 03:01:52 10° SSW 03:06:06 19° SSE 03:09:59 10° ESE visible
21 Oct - 04:47:18 10° SW 04:52:07 25° S 04:56:24 10° SE visible
21 Oct - 06:34:08 10° WSW 06:38:00 20° SSW 06:41:30 10° SSE daylight
22 Oct - 02:37:06 10° SSW 02:41:32 19° SSE 02:45:38 10° ESE visible
22 Oct - 04:22:34 10° SW 04:27:36 26° S 04:32:04 10° ESE visible
22 Oct - 06:09:24 10° WSW 06:13:31 21° SSW 06:17:13 10° SSE daylight
23 Oct - 02:12:20 10° SSW 02:16:58 20° SSE 02:21:14 10° ESE visible
23 Oct - 03:57:48 10° SW 04:03:03 27° S 04:07:41 10° ESE visible
23 Oct - 05:44:39 10° WSW 05:49:00 22° SSW 05:52:54 10° SSE daylight
24 Oct - 01:47:34 10° SSW 01:52:21 21° SSE 01:56:48 10° ESE visible
24 Oct - 03:33:02 10° SW 03:38:28 28° S 03:43:18 10° ESE visible
24 Oct - 05:19:53 10° WSW 05:24:28 23° SSW 05:28:34 10° SSE daylight
25 Oct - 01:22:47 10° SSW 01:27:44 21° SSE 01:32:21 10° ESE visible
25 Oct - 03:08:16 10° SW 03:13:51 29° S 03:18:52 10° ESE visible
25 Oct - 04:55:06 10° WSW 04:59:54 23° SSW 05:04:12 10° SE visible
26 Oct - 00:58:00 10° SSW 01:03:04 21° SSE 01:07:50 10° ESE visible
26 Oct - 02:43:29 10° SW 02:49:13 30° S 02:54:25 10° ESE visible
26 Oct - 04:30:17 10° WSW 04:35:18 24° SSW 04:39:47 10° SE visible
26 Oct - 06:19:38 10° SW 06:20:50 11° SW 06:22:01 10° SSW daylight
27 Oct - 00:33:14 10° SSW 00:38:24 22° SSE 00:43:18 10° ESE visible
27 Oct - 02:18:40 10° SW 02:24:34 30° S 02:29:56 10° ESE visible
27 Oct - 04:05:28 10° WSW 04:10:41 25° SSW 04:15:22 10° SE visible
27 Oct - 05:54:27 10° SW 05:56:16 11° SW 05:58:01 10° SSW daylight
28 Oct - 00:08:27 10° SSW 00:13:42 22° SSE 00:18:43 10° ESE visible
28 Oct - 01:53:52 10° SW 01:59:53 31° S 02:05:25 10° ESE visible
28 Oct - 03:40:38 10° WSW 03:46:02 26° SSW 03:50:55 10° SE visible
28 Oct - 05:29:23 10° SW 05:31:40 12° SW 05:33:50 10° SSW daylight
28 Oct - 23:43:41 10° SSW 23:48:59 22° SSE 23:54:06 10° ESE night (unlit)
29 Oct - 01:29:04 10° SW 01:35:11 31° S 01:40:51 10° ESE visible
29 Oct - 03:15:48 10° WSW 03:21:22 27° SSW 03:26:26 10° SE visible
29 Oct - 05:04:22 10° WSW 05:07:02 13° SSW 05:09:34 10° S visible
29 Oct - 23:18:56 10° SSW 23:24:15 22° SSE 23:29:27 10° ESE night (unlit)
30 Oct - 01:04:16 10° SW 01:10:27 32° S 01:16:15 10° ESE visible
30 Oct - 02:50:58 10° WSW 02:56:41 27° SSW 03:01:54 10° SE visible
30 Oct - 04:39:23 10° WSW 04:42:23 14° SSW 04:45:14 10° S visible
30 Oct - 22:54:11 10° SSW 22:59:31 22° SSE 23:04:46 10° ESE night (unlit)
